Date String (YYYY-MM-DD hh:mm:ss) UTC,Instrument flags,Ambient pressure (hPa),Sample flow (lpm),Bypass flow (lpm),Sample temperature (°C),Ambient temperature (°C),ASC tube jacket temperature (°C),LED temperature (°C),Box temperature (°C),Sample RH (%),Span deviation,Mass concentration (μg/m³),Mass concentration (μg/m³),Mass concentration (μg/m³)
DateTimeUTC,F1_M11,P_M11,Q1_M11,Q2_M11,T1_M11,T2_M11,T3_M11,T4_M11,T5_M11,U1_M11,ZSPAN_M11,X2_M11,X0_M11,X1_M11
2023-02-25 18:00:00,,0824.1,4.99,0.00,22.5,22.8,00.0,31.1,24.5,12.2,0000.0,0000.78,0002.39,0000.43
2023-02-25 18:01:00,,0824.1,5.01,0.00,22.6,22.4,00.0,31.1,24.4,12.3,0000.0,0000.80,0002.44,0000.43
2023-02-25 18:02:00,,0824.1,5.00,0.00,22.6,22.0,00.0,31.2,24.4,12.3,0000.0,0000.83,0002.58,0000.43
2023-02-25 18:03:00,,0824.0,4.98,0.00,22.6,21.8,00.0,31.2,24.4,12.8,0000.0,0000.82,0002.60,0000.44
2023-02-25 18:04:00,,0824.0,5.01,0.00,22.6,21.6,00.0,31.2,24.3,13.1,0000.0,0000.81,0002.59,0000.43
2023-02-25 18:05:00,,0824.0,5.01,0.00,22.6,21.5,00.0,31.2,24.3,12.8,0000.0,0000.82,0002.61,0000.43
2023-02-25 18:06:00,,0824.0,4.99,0.00,22.6,21.4,00.0,31.2,24.3,13.2,0000.0,0000.81,0002.57,0000.43
2023-02-25 18:07:00,,0824.0,5.01,0.00,22.5,21.2,00.0,31.2,24.3,12.7,0000.0,0000.82,0002.56,0000.43
2023-02-25 18:08:00,,0824.0,5.00,0.00,22.5,21.2,00.0,31.2,24.2,12.6,0000.0,0000.82,0002.51,0000.43
2023-02-25 18:09:00,,0824.0,4.99,0.00,22.5,21.1,00.0,31.2,24.2,12.4,0000.0,0000.78,0002.40,0000.42
2023-02-25 18:10:00,,0824.0,4.99,0.00,22.5,21.1,00.0,31.2,24.2,12.5,0000.0,0000.79,0002.04,0000.43
2023-02-25 18:11:00,,0823.9,5.00,0.00,22.5,21.0,00.0,31.2,24.1,12.7,0000.0,0000.78,0001.59,0000.43
2023-02-25 18:12:00,,0824.0,4.99,0.00,22.4,21.0,00.0,31.2,24.1,12.6,0000.0,0000.74,0001.51,0000.43
2023-02-25 18:13:00,,0823.9,5.00,0.00,22.4,21.0,00.0,31.2,24.1,12.8,0000.0,0000.70,0001.36,0000.43
2023-02-25 18:14:00,,0823.8,5.00,0.00,22.4,20.9,00.0,31.2,24.1,12.8,0000.0,0000.66,0001.22,0000.43
2023-02-25 18:15:00,,0823.8,5.01,0.00,22.4,20.9,00.0,31.2,24.1,12.8,0000.0,0000.65,0001.18,0000.43
2023-02-25 18:16:00,,0823.8,5.00,0.00,22.4,20.9,00.0,31.2,24.1,12.8,0000.0,0000.67,0001.23,0000.43
2023-02-25 18:17:00,,0823.8,5.00,0.00,22.4,20.9,00.0,31.2,24.1,12.8,0000.0,0000.69,0001.27,0000.43
2023-02-25 18:18:00,,0823.7,5.00,0.00,22.4,20.9,00.0,31.2,24.1,12.9,0000.0,0000.68,0001.28,0000.43
2023-02-25 18:19:00,,0823.8,5.01,0.00,22.4,20.9,00.0,31.2,24.0,13.1,0000.0,0000.67,0001.34,0000.43
2023-02-25 18:20:00,,0823.8,5.01,0.00,22.3,20.8,00.0,31.2,24.0,13.1,0000.0,0000.67,0001.36,0000.43
2023-02-25 18:21:00,,0823.8,5.01,0.00,22.3,20.8,00.0,31.2,24.0,12.6,0000.0,0000.64,0001.26,0000.43
2023-02-25 18:22:00,,0823.8,5.00,0.00,22.3,20.8,00.0,31.1,24.0,12.6,0000.0,0000.62,0001.20,0000.42
2023-02-25 18:23:00,,0823.8,5.00,0.00,22.3,20.8,00.0,31.1,24.0,12.9,0000.0,0000.64,0001.25,0000.43
2023-02-25 18:24:00,,0823.8,5.00,0.00,22.3,20.8,00.0,31.1,24.0,12.8,0000.0,0000.65,0001.27,0000.43
2023-02-25 18:25:00,,0823.9,4.95,0.00,22.3,20.8,00.0,31.1,24.0,13.6,0000.0,0000.67,0001.33,0000.43
2023-02-25 18:26:00,,0823.8,4.99,0.00,22.3,20.9,00.0,31.1,24.0,14.1,0000.0,0000.66,0001.31,0000.42
2023-02-25 18:27:00,,0823.8,4.99,0.00,22.3,20.9,00.0,31.1,24.0,13.3,0000.0,0000.62,0001.20,0000.42
2023-02-25 18:28:00,,0823.8,5.00,0.00,22.3,20.9,00.0,31.1,24.1,13.9,0000.0,0000.59,0001.15,0000.41
2023-02-25 18:29:00,,0823.7,5.00,0.00,22.3,20.9,00.0,31.1,24.1,13.1,0000.0,0000.58,0001.08,0000.41
2023-02-25 18:30:00,,0823.7,5.00,0.00,22.3,20.9,00.0,31.1,24.0,12.9,0000.0,0000.60,0001.03,0000.42
2023-02-25 18:31:00,,0823.8,4.96,0.00,22.3,20.8,00.0,31.1,24.0,12.6,0000.0,0000.61,0001.09,0000.43
2023-02-25 18:32:00,,0823.8,5.02,0.00,22.3,20.8,00.0,31.1,24.0,13.4,0000.0,0000.62,0001.12,0000.43
2023-02-25 18:33:00,,0823.7,5.01,0.00,22.3,20.8,00.0,31.1,24.0,14.1,0000.0,0000.63,0001.14,0000.43
2023-02-25 18:34:00,,0823.7,5.00,0.00,22.2,20.8,00.0,31.1,24.0,13.0,0000.0,0000.64,0001.17,0000.43
2023-02-25 18:35:00,,0823.7,5.01,0.00,22.3,20.8,00.0,31.0,24.0,13.1,0000.0,0000.65,0001.18,0000.44
2023-02-25 18:36:00,,0823.7,4.99,0.00,22.3,20.8,00.0,31.0,24.0,12.9,0000.0,0000.67,0001.19,0000.44
2023-02-25 18:37:00,,0823.7,4.98,0.00,22.3,20.8,00.0,31.0,24.0,13.2,0000.0,0000.74,0001.37,0000.45
2023-02-25 18:38:00,,0823.7,5.00,0.00,22.3,20.8,00.0,31.0,24.0,13.3,0000.0,0000.74,0001.37,0000.45
2023-02-25 18:39:00,,0823.6,5.01,0.00,22.3,20.8,00.0,31.0,24.1,13.2,0000.0,0000.77,0001.47,0000.45
2023-02-25 18:40:00,,0823.6,5.01,0.00,22.2,20.8,00.0,31.0,24.0,12.8,0000.0,0000.80,0001.58,0000.45
2023-02-25 18:41:00,,0823.7,5.00,0.00,22.2,20.8,00.0,31.0,24.0,12.9,0000.0,0000.78,0001.54,0000.43
2023-02-25 18:42:00,,0823.6,5.03,0.00,22.2,20.8,00.0,31.0,24.0,13.5,0000.0,0000.77,0001.46,0000.43
2023-02-25 18:43:00,,0823.5,4.99,0.00,22.2,20.8,00.0,31.0,23.9,14.0,0000.0,0000.76,0001.42,0000.43
2023-02-25 18:44:00,,0823.5,5.00,0.00,22.2,20.8,00.0,31.0,24.0,13.0,0000.0,0000.76,0001.38,0000.44
2023-02-25 18:45:00,,0823.5,5.01,0.00,22.2,20.8,00.0,31.0,24.0,13.1,0000.0,0000.76,0001.34,0000.43
2023-02-25 18:46:00,,0823.4,5.00,0.00,22.2,20.8,00.0,31.0,23.9,13.8,0000.0,0000.73,0001.31,0000.43
2023-02-25 18:47:00,,0823.4,4.99,0.00,22.2,20.8,00.0,31.0,24.0,13.1,0000.0,0000.71,0001.27,0000.43
2023-02-25 18:48:00,,0823.5,5.00,0.00,22.2,20.8,00.0,31.0,24.0,13.4,0000.0,0000.68,0001.25,0000.44
2023-02-25 18:49:00,,0823.4,5.00,0.00,22.2,20.8,00.0,31.0,24.0,13.5,0000.0,0000.71,0001.36,0000.45
2023-02-25 18:50:00,,0823.4,5.02,0.00,22.2,20.8,00.0,31.0,24.0,13.0,0000.0,0000.69,0001.27,0000.46
2023-02-25 18:51:00,,0823.4,5.00,0.00,22.2,20.8,00.0,31.0,24.0,13.4,0000.0,0000.68,0001.18,0000.46
2023-02-25 18:52:00,,0823.4,4.99,0.00,22.2,20.8,00.0,31.0,24.0,13.1,0000.0,0000.67,0001.15,0000.47
2023-02-25 18:53:00,,0823.5,4.99,0.00,22.2,20.8,00.0,31.0,24.0,13.6,0000.0,0000.69,0001.19,0000.47
2023-02-25 18:54:00,,0823.4,4.99,0.00,22.2,20.7,00.0,31.0,23.9,13.8,0000.0,0000.73,0001.34,0000.47
2023-02-25 18:55:00,,0823.4,4.99,0.00,22.2,20.7,00.0,31.0,24.0,13.2,0000.0,0000.74,0001.43,0000.47
2023-02-25 18:56:00,,0823.4,5.01,0.00,22.2,20.7,00.0,31.0,23.8,13.1,0000.0,0000.76,0001.51,0000.48
2023-02-25 18:57:00,,0823.4,5.01,0.00,22.1,20.7,00.0,31.0,23.8,14.1,0000.0,0000.79,0001.58,0000.49
2023-02-25 18:58:00,,0823.3,5.02,0.00,22.1,20.6,00.0,31.0,23.8,14.5,0000.0,0000.79,0001.57,0000.49
2023-02-25 18:59:00,,0823.3,4.99,0.00,22.1,20.7,00.0,30.9,23.8,13.7,0000.0,0000.76,0001.48,0000.48
